Regional Weather Roundup
Issued by NWS

Home | Current Version | Previous Version | Graphics & Text | Print | Product List | Glossary On
Versions: 1 2 3 4 5 6 7 8 9 10 11 12 13 14 15 16 17 18 19 20 21 22 23 24 25 26 27 28 29 30 31 32 33 34 35 36 37 38 39 40 41 42 43 44 45 46 47 48 49 50
000
ASUS43 KIND 270059
RWRIN

WEATHER ROUNDUP FOR INDIANA
NATIONAL WEATHER SERVICE INDIANAPOLIS IN
800 PM EST THU FEB 26 2015

NOTE: "FAIR" INDICATES FEW OR NO CLOUDS BELOW 12,000 FEET WITH NO
SIGNIFICANT WEATHER AND/OR OBSTRUCTIONS TO VISIBILITY.

* - STATION DOES NOT REPORT WEATHER SUCH AS PRECIPITATION OR FOG.

+ - STATION NOT QUALITY CONTROLLED BY THE NATIONAL WEATHER SERVICE.
    USE DATA WITH CAUTION...ESPECIALLY DEWPOINT AND RELATIVE
    HUMIDITY OBSERVATIONS.

INZ001>003-010>013-019-020-270200-
NORTHWEST INDIANA

CITY           SKY/WX    TMP DP  RH WIND       PRES   REMARKS
VALPARAISO     SNOW      14  10  85 N3        30.32R VSB 1/2

$$

LMZ046-743>745-270200-
SOUTHERN LAKE MICHIGAN

STATION/POSITION TIME  TEMP WIND        PRES
                       AIR  DIR/SP/G
                 (UTC) (F)  (DEG/KT/KT) (MB)
MICHIGAN CITY    0000   15   10/  9/ 12   N/A

$$

INZ004-005-014>016-021>024-270200-
NORTH CENTRAL INDIANA

CITY           SKY/WX    TMP DP  RH WIND       PRES   REMARKS
ELKHART        CLEAR     10  -6  48 N7        30.31R WCI   0
GOSHEN         CLEAR      9  -4  55 NW9       30.29R WCI  -4
SOUTH BEND     PTCLDY     9  -2  61 N5        30.31R WCI   1

$$

INZ006>009-017-018-025>027-270200-
NORTHEAST INDIANA

CITY           SKY/WX    TMP DP  RH WIND       PRES   REMARKS
ANGOLA *+      CLEAR     10   1  67 CALM      30.25R
FORT WAYNE     LGT SNOW  14   9  80 NW5       30.28R WCI   6

$$

INZ028-029-035-036-043>045-051>053-270200-
WEST CENTRAL INDIANA

CITY           SKY/WX    TMP DP  RH WIND       PRES   REMARKS
CRAWFORDSVL +  PTCLDY     7  -4  61 NW5       30.32R WCI  -2
GREENCASTLE +  MOCLDY    14   7  73 NW7       30.31R WCI   4
LAFAYETTE      CLEAR     11   3  70 CALM      30.34R
TERRE HAUTE    PTCLDY    16   5  62 N8        30.34R WCI   5

$$

INZ030>032-037>040-046>048-054>057-064-065-270200-
CENTRAL INDIANA

CITY           SKY/WX    TMP DP  RH WIND       PRES   REMARKS
COLUMBUS       PTCLDY    10   3  72 N7        30.31R WCI   0
GREENWOOD *+   CLOUDY    18   5  57 N6        30.29R WCI   9
INDIANAPOLIS   LGT SNOW  17  10  74 N13       30.29R WCI   4
-EAGLE CREEK   CLOUDY    15  10  80 NW10      30.29R WCI   2
KOKOMO *+      PTCLDY    12   1  62 N8        30.30R WCI   1
MT COMFORT *+  MOCLDY    10   1  67 N3        30.29R
SHELBYVILLE    PTCLDY    14   6  70 N3        30.29R

$$

INZ033-034-041-042-049-050-058-059-270200-
EAST CENTRAL INDIANA

CITY           SKY/WX    TMP DP  RH WIND       PRES   REMARKS
MUNCIE         CLOUDY    14  10  84 W3        30.27R

$$

INZ060-061-067>069-081>083-085>088-270200-
SOUTHWEST INDIANA

CITY           SKY/WX    TMP DP  RH WIND       PRES   REMARKS
EVANSVILLE     CLEAR     24  12  60 NW14G21   30.34R WCI  12
HUNTINGBURG *+ PTCLDY    23  14  68 NW10      30.31R WCI  12

$$

INZ062-063-066-070>080-084-089>092-270200-
SOUTH CENTRAL AND SOUTHEAST INDIANA

CITY           SKY/WX    TMP DP  RH WIND       PRES   REMARKS
BLOOMINGTON    MOCLDY    13   7  77 N3        30.29R
SEYMOUR +      CLOUDY    19   9  63 N13       30.30R WCI   7

$$




USA.gov is the U.S. government's official web portal to all federal, state and local government web resources and services.